KOREASAT 5 (MUGUNGWHA 5)
1 29349U 06034A   19261.50855316 -.00000361  00000-0  00000+0 0  9992
2 29349   0.0173 232.5086 0001946 299.5359 121.2275  1.00269969 47933
BLOCK DM-SL R/B         
1 29350U 06034B   19260.80371707 -.00000088  00000-0  00000-0 0  9990
2 29350   0.1072   7.0381 6384958 295.8362 116.7419  2.12151023101321